EHI
0 0 0 0 0 0 0 0 0 0 0 0 0 0 0 0 0 0 0 0 0 0 1 8 17 17 10 6 2 1 3 4 2 0 0 0 0 0 0 0 0 0 0 0 0 0 0 0 0
0 0 0 0 0 0 0 0 0 0 0 0 0 0 0 0 0 0 0 0 0 0 0 8 20 23 17 12 7 4 4 3 2 1 1 1 0 0 0 0 0 0 0 0 0 0 0 0 0
0 0 0 0 0 0 0 0 0 0 0 0 0 0 0 0 0 0 0 0 0 0 0 11 28 33 28 22 17 11 6 3 2 2 2 2 1 0 0 0 0 0 0 0 0 0 0 0 0
0 0 0 0 0 0 0 0 0 0 0 0 0 0 0 0 0 0 0 0 0 0 0 13 33 40 35 31 25 18 10 4 3 3 3 2 1 0 0 0 0 0 0 0 0 0 0 0 0
0 0 0 0 0 0 0 0 0 0 0 0 0 0 0 0 0 0 0 1 2 1 0 13 34 42 38 35 30 22 13 7 4 3 2 1 0 0 0 0 0 0 0 0 0 0 0 0 0
0 0 0 0 0 0 0 0 0 0 0 0 0 0 0 0 0 0 0 1 2 2 1 10 27 36 36 34 30 23 15 8 5 3 1 0 0 0 0 0 0 0 0 0 0 0 0 0 0
0 0 0 0 0 0 0 0 0 0 0 0 0 0 0 0 0 0 0 1 1 2 3 6 14 23 27 29 28 23 15 9 5 2 1 0 0 0 0 0 0 0 0 0 0 0 0 0 0
0 0 0 0 0 0 0 0 0 0 0 0 0 0 0 0 0 0 0 0 1 3 6 7 11 15 18 22 24 24 19 12 6 3 1 1 0 0 0 0 0 0 0 0 0 0 0 0 0
0 0 0 0 0 0 0 0 0 0 0 0 0 0 0 0 0 0 0 0 1 5 9 12 15 17 16 17 19 22 21 15 9 5 3 2 1 0 0 0 0 0 0 0 0 0 0 0 0
0 0 0 0 0 0 0 0 0 0 0 0 0 1 1 1 0 0 0 0 0 3 7 11 14 17 17 14 13 15 17 15 11 8 5 4 2 1 0 0 0 0 0 0 0 0 0 0 0
0 0 0 0 0 0 0 0 0 0 0 0 0 3 5 2 0 0 0 0 0 1 2 5 9 12 14 12 8 9 13 13 12 9 6 5 4 2 0 0 0 0 0 0 0 0 0 0 1
0 0 0 0 0 0 0 0 0 0 0 0 1 5 7 4 1 0 0 0 0 0 0 1 4 9 12 9 5 6 10 13 12 9 6 6 6 4 1 1 0 0 0 0 0 0 0 0 1
0 0 0 0 0 0 0 0 0 0 1 3 6 8 7 4 1 0 0 0 1 1 1 1 3 7 11 9 5 3 6 9 10 7 5 6 7 5 3 2 1 0 0 1 1 1 0 0 1
0 0 0 0 0 0 0 0 0 2 6 12 14 12 9 6 3 1 2 2 3 3 2 2 2 5 9 9 6 3 2 4 5 4 3 5 7 7 5 3 1 1 1 2 2 1 0 0 0
0 0 0 0 0 0 0 1 2 7 14 22 23 20 16 12 9 7 6 7 8 8 6 3 2 4 6 8 7 4 2 1 1 1 1 2 6 8 7 5 4 5 6 6 4 3 3 3 2
0 0 0 0 0 0 1 3 6 13 24 30 31 28 25 21 18 15 14 13 14 15 12 10 10 9 8 10 11 10 8 6 5 4 3 3 5 9 12 11 10 14 17 16 13 13 13 10 7
0 0 0 0 0 1 2 6 12 20 30 36 35 32 30 29 27 24 21 19 18 19 20 20 21 19 17 17 19 21 21 18 17 16 12 10 11 15 18 18 19 24 29 27 25 28 28 21 13
0 0 0 0 0 1 4 9 16 24 32 36 34 32 34 35 31 27 24 21 19 21 24 25 27 28 26 24 25 27 27 28 29 28 23 19 20 22 25 25 27 33 36 32 33 37 35 26 19
0 0 0 0 0 1 4 8 14 20 25 27 28 31 34 35 30 26 23 20 17 18 21 24 27 30 30 29 27 26 27 29 29 27 23 19 18 20 24 27 31 36 37 33 34 38 34 26 20
0 0 0 0 0 0 2 5 8 11 13 15 19 25 29 28 24 20 17 14 12 12 14 19 23 26 28 28 26 23 21 21 18 14 13 13 12 13 15 18 22 27 30 29 32 34 31 24 20
0 0 0 0 0 0 0 1 3 4 4 7 13 18 20 19 15 12 9 7 6 7 8 11 15 18 20 21 19 16 13 11 7 4 4 6 7 7 7 8 9 13 18 21 24 27 27 22 18
0 0 0 0 0 0 0 0 0 1 1 3 8 11 12 10 7 5 3 2 3 5 6 7 9 11 12 13 12 11 9 5 2 0 0 2 3 3 3 2 3 5 9 11 13 17 20 18 16
0 0 0 0 0 0 0 0 0 0 0 1 3 4 4 4 2 2 1 2 4 5 6 6 7 7 8 8 8 8 7 3 1 0 0 0 1 1 1 0 1 2 4 5 5 8 11 13 13
0 0 0 0 0 0 0 0 0 0 0 0 1 1 1 1 0 1 2 4 6 6 6 7 7 7 6 5 4 4 3 1 0 0 0 0 0 0 0 0 0 1 1 2 2 2 4 6 6
0 0 0 0 0 0 0 0 0 0 0 0 0 0 0 0 0 1 3 5 6 6 7 8 9 8 5 3 1 1 1 1 0 0 0 0 0 0 0 0 0 0 0 0 0 1 1 1 1
0 0 0 0 0 0 0 0 0 0 0 0 0 0 0 0 0 2 3 4 4 6 8 12 12 8 4 2 1 0 0 0 0 0 0 0 0 0 0 0 0 0 0 0 0 0 0 0 0
0 0 0 0 0 0 0 0 0 0 0 0 0 1 1 1 1 1 2 2 3 4 8 12 12 8 4 2 0 0 0 0 0 0 0 0 0 0 0 0 0 0 0 0 0 0 0 0 0
0 0 0 0 0 0 0 0 0 0 0 0 0 1 2 2 1 1 1 1 1 2 4 6 7 7 5 2 0 0 0 0 0 0 0 0 0 0 0 0 0 0 0 0 0 0 0 0 0
0 0 0 0 0 0 0 0 0 0 0 0 0 0 1 1 1 0 0 0 0 1 1 1 3 4 3 1 0 1 1 1 0 0 0 0 0 0 0 0 0 0 0 0 0 0 0 0 0
0 0 0 0 0 0 0 0 0 0 0 0 0 0 0 0 0 0 0 0 0 0 0 0 1 1 1 0 0 1 2 2 1 0 0 0 0 0 0 0 0 0 0 0 0 0 0 0 0
Wind_Speed
4 4 2 1 3 4 3 2 1 1 2 1 3 4 6 4 3 2 1 9 14 14 12 16 18 18 17 16 15 15 15 14 14 13 12 12 11 11 10 9 9 8 8 8 7 7 7 7 7
3 3 1 2 4 3 4 3 1 1 3 3 4 4 5 3 3 5 5 7 14 13 11 13 19 18 17 16 15 15 14 14 13 12 12 11 10 10 9 9 8 8 8 7 7 7 7 7 6
3 2 2 3 3 2 3 2 1 2 2 2 3 4 4 3 6 7 6 11 12 11 9 13 20 18 18 17 15 15 14 13 13 12 11 10 10 9 9 8 8 7 7 7 7 7 7 7 6
3 2 3 4 1 3 4 3 2 3 1 3 4 5 3 2 6 7 13 14 13 10 9 12 20 18 18 17 16 15 14 13 12 11 11 10 10 9 9 8 8 8 7 7 7 7 7 7 7
3 3 5 4 4 5 4 2 4 3 1 2 4 4 2 4 6 12 15 15 14 10 8 10 19 18 17 17 16 15 14 13 12 11 11 10 10 10 9 9 9 9 8 8 8 8 8 8 7
4 4 4 3 6 7 3 1 2 2 2 3 4 4 1 2 8 12 14 13 12 11 9 8 18 18 17 16 16 15 14 13 12 12 11 11 10 10 10 10 10 10 10 10 9 9 9 9 9
4 4 1 2 4 6 5 2 2 3 3 3 5 5 1 3 5 9 9 9 9 9 7 6 8 12 16 16 15 15 14 13 12 12 12 11 11 11 11 11 11 11 11 11 11 11 11 11 10
4 4 1 2 2 5 6 3 1 3 3 4 4 7 6 6 8 8 8 7 7 7 6 5 6 6 6 8 14 15 14 13 13 12 12 12 12 12 12 11 11 12 12 12 13 12 12 12 11
3 5 1 2 2 4 5 3 2 2 5 3 2 4 5 14 14 11 8 6 7 9 7 6 5 5 5 5 10 12 13 13 12 11 13 12 6 5 7 10 12 14 14 14 14 14 14 13 12
4 3 5 4 3 4 5 3 1 3 3 1 3 5 12 16 15 14 13 13 13 13 12 8 7 6 5 6 5 4 4 5 6 4 5 4 4 4 7 8 14 15 15 15 15 15 14 12 6
2 5 4 4 4 3 3 3 1 5 3 6 7 10 15 15 13 12 13 12 13 11 11 10 9 7 7 5 3 3 2 3 4 5 5 4 3 4 5 3 6 8 10 8 9 9 7 7 6
2 4 4 5 3 2 2 2 1 4 6 5 8 15 16 16 15 15 13 11 8 8 10 9 9 8 8 5 3 3 3 3 4 5 6 5 4 5 5 5 5 5 4 5 6 5 7 8 9
2 4 4 5 6 4 3 3 3 4 3 4 11 13 14 15 12 9 8 7 7 9 10 8 8 9 8 6 4 4 4 5 5 4 5 7 6 7 6 6 5 6 6 6 6 7 8 9 9
3 5 7 7 5 3 2 2 0 3 2 7 10 10 10 10 9 7 7 8 9 9 10 8 9 9 7 6 5 4 4 5 4 5 7 8 7 7 7 7 6 7 7 7 7 8 8 7 7
3 5 7 4 3 3 1 3 2 3 4 7 8 8 7 6 6 7 8 8 9 8 8 9 9 8 7 7 6 5 4 4 5 6 7 8 9 9 8 7 7 7 7 7 6 8 7 6 7
3 4 4 7 5 4 2 4 5 3 6 6 6 5 5 3 3 4 5 6 6 6 7 7 7 8 8 7 6 5 5 5 5 5 6 8 10 10 8 8 8 7 6 5 6 6 6 6 6
5 3 3 8 5 3 2 2 5 3 6 6 4 4 4 3 1 1 3 5 6 6 6 6 5 6 7 7 6 5 5 5 5 5 5 7 8 9 8 8 8 7 6 6 7 6 5 6 7
1 2 3 5 6 4 3 2 5 4 5 5 4 4 3 3 1 1 3 5 5 6 6 6 6 5 5 4 3 3 4 4 4 5 5 7 6 7 7 7 8 7 6 6 6 8 6 5 6
1 1 3 5 3 4 4 3 5 5 4 3 3 3 3 2 1 2 3 4 5 5 6 5 5 4 3 2 2 2 4 3 3 4 5 5 5 5 5 5 6 6 6 8 8 7 8 7 4
1 0 2 4 4 3 3 4 4 4 2 0 1 2 3 2 1 1 2 2 3 4 5 5 5 4 3 3 2 2 2 2 2 2 3 3 4 4 4 4 5 5 5 7 7 7 5 4 5
1 2 2 2 4 5 3 5 4 4 4 3 1 2 2 4 4 3 3 3 4 5 5 5 5 4 3 2 1 0 1 2 2 2 2 3 4 4 4 4 4 4 4 5 7 7 7 6 5
1 3 2 0 3 3 3 2 5 3 4 2 1 2 3 4 4 4 4 4 5 5 4 4 4 3 2 2 2 2 2 2 2 2 3 4 4 4 4 4 4 4 4 5 6 6 6 7 7
2 3 3 2 2 2 4 2 7 4 3 4 4 5 6 6 6 6 6 5 4 4 4 4 3 3 2 2 2 2 2 2 2 2 4 4 4 4 4 4 4 5 4 6 7 6 7 6 7
3 6 6 5 5 2 2 0 5 4 5 5 5 5 6 6 6 6 5 4 3 3 3 3 3 3 2 2 2 2 3 2 3 3 3 3 3 4 4 5 5 6 5 6 7 7 8 7 8
6 7 6 7 6 4 3 1 7 5 4 4 5 5 4 4 4 5 5 5 5 5 4 4 4 4 3 3 3 3 3 3 3 3 3 4 3 3 5 5 6 6 6 7 7 7 8 8 9
1 7 6 3 4 5 4 3 5 4 5 4 3 3 4 4 4 4 5 5 5 5 5 4 5 5 4 4 4 4 4 3 3 3 3 3 3 4 5 6 7 7 8 8 7 7 8 7 9
3 2 5 6 2 2 5 5 6 8 11 10 8 8 8 7 7 7 7 6 5 5 5 5 6 6 6 6 5 4 4 4 4 4 3 3 3 4 5 6 7 7 8 8 8 6 8 7 8
2 7 5 5 3 3 5 3 4 10 12 11 10 10 9 9 10 9 8 8 7 5 5 4 4 6 6 6 5 5 5 5 4 4 4 4 4 4 6 6 7 7 8 8 7 7 7 7 6
2 4 5 4 4 5 4 5 1 3 6 7 8 7 8 9 9 9 9 8 8 7 6 6 5 5 5 6 6 6 6 5 5 4 5 4 4 4 5 6 7 7 7 7 6 6 6 5 4
1 3 5 2 3 4 3 5 3 3 4 5 6 7 8 8 8 8 9 10 11 11 9 8 6 6 6 6 6 7 6 5 5 6 5 4 4 4 4 5 6 6 6 7 6 6 5 3 2
Wind_Direction
171 154 151 141 61 43 6 317 253 14 22 44 118 113 124 128 176 208 98 138 137 147 157 161 160 158 157 155 154 152 150 149 148 147 146 145 144 143 143 142 143 143 142 142 142 142 140 138 136
153 157 163 81 70 43 317 301 344 126 142 107 75 77 79 81 75 109 128 140 142 148 154 159 163 161 160 160 160 160 158 157 156 155 155 154 154 154 154 153 154 155 155 155 157 157 155 154 151
163 180 98 72 76 176 271 282 168 101 146 127 88 71 93 137 140 149 154 143 140 148 153 165 165 165 164 165 166 167 167 166 165 165 166 167 168 170 170 169 170 172 172 172 174 174 173 172 172
139 73 55 58 348 240 238 251 158 132 103 72 100 80 63 59 155 152 144 146 146 151 156 171 168 169 169 170 172 174 174 175 175 176 178 181 184 187 188 188 190 193 194 193 192 192 193 194 195
77 77 47 17 314 286 262 229 172 151 99 77 100 98 53 12 110 135 146 152 154 156 162 174 171 173 174 175 177 179 181 183 185 187 190 193 198 202 205 206 208 209 212 213 213 213 214 215 216
57 61 62 346 314 308 310 279 143 122 110 108 110 106 63 100 134 149 152 155 158 160 162 172 176 177 179 180 182 184 187 190 193 196 200 204 209 213 217 220 221 222 225 227 228 229 230 231 232
99 84 99 298 307 318 328 344 138 139 145 169 133 112 147 164 158 147 144 142 148 158 161 172 177 180 183 185 187 190 193 197 201 205 209 213 218 222 226 230 231 232 233 236 238 239 241 241 243
120 98 60 312 303 303 316 340 120 152 159 131 126 146 195 185 144 128 119 125 145 159 168 173 173 175 180 188 195 196 200 204 208 213 217 221 226 229 233 235 239 241 242 243 246 247 249 250 251
90 78 212 240 247 288 314 340 343 114 117 126 147 176 177 138 138 134 130 140 164 177 183 181 178 176 176 184 200 201 206 209 213 219 224 226 229 236 243 245 243 247 250 251 252 253 254 256 257
89 140 225 222 218 263 298 291 260 106 116 136 81 76 123 138 152 159 166 174 183 190 192 191 187 182 177 194 199 200 207 210 212 211 225 226 218 228 241 251 253 254 255 256 257 255 257 259 256
153 203 243 258 243 250 276 291 283 139 194 205 182 153 147 155 166 177 184 186 191 191 192 196 196 191 189 196 190 194 202 207 216 218 220 225 228 233 242 244 257 260 262 261 261 260 252 247 246
242 254 252 278 297 296 248 270 261 201 227 210 168 154 158 169 180 188 190 191 185 188 197 196 196 197 199 199 201 197 204 212 220 225 223 223 232 236 238 240 241 243 247 249 251 250 250 249 248
268 280 286 275 292 272 248 239 239 257 277 113 129 148 167 178 188 194 192 187 183 192 196 194 193 199 200 203 210 209 214 222 227 228 227 225 233 240 241 243 241 242 240 241 245 246 249 251 252
275 283 287 286 282 266 229 262 208 273 122 121 137 157 170 180 185 183 187 190 192 197 197 191 195 198 197 206 212 220 219 223 231 233 231 226 230 236 237 241 241 242 239 238 240 244 246 248 249
300 314 324 318 319 289 225 318 285 283 126 127 140 149 157 173 175 190 194 192 193 195 191 192 197 192 196 207 215 224 229 228 232 239 236 231 230 232 234 237 239 241 239 238 242 246 245 247 247
23 24 338 309 331 316 155 262 308 338 121 124 133 139 145 154 169 187 183 181 183 180 180 190 199 190 198 205 213 226 229 231 238 243 245 239 236 234 234 236 240 238 233 233 238 240 241 243 245
25 25 321 311 335 348 111 248 322 20 105 112 119 130 137 136 120 147 164 171 171 172 166 169 174 181 198 204 213 229 238 237 239 241 250 251 246 241 235 238 241 235 232 231 240 236 224 236 244
315 343 325 310 324 28 53 349 349 35 99 111 114 121 124 121 121 121 140 150 148 151 154 163 169 180 184 192 203 231 247 244 242 246 248 254 252 248 239 240 242 237 237 236 233 239 228 228 235
188 266 290 287 316 51 50 21 2 18 58 86 116 130 127 123 59 76 118 126 132 143 150 158 167 180 167 165 192 214 237 243 244 244 250 257 261 262 253 253 249 238 236 240 236 233 234 232 212
178 233 285 301 352 60 52 18 352 16 6 341 152 142 151 140 118 113 123 128 147 156 157 160 174 180 181 183 191 210 237 257 255 269 284 283 284 279 272 265 263 255 252 251 245 235 233 230 197
185 186 229 284 356 29 41 357 345 344 1 19 71 146 168 180 185 191 186 178 174 177 179 177 181 182 185 186 155 331 331 319 316 318 313 317 314 305 295 286 278 271 260 258 252 236 232 240 223
232 238 211 156 58 341 33 318 302 326 336 335 292 209 206 210 207 212 211 206 204 204 192 182 178 177 177 166 174 194 220 254 265 283 294 308 311 312 314 305 295 286 273 268 265 251 237 237 239
197 53 69 60 106 41 27 91 291 330 314 278 255 235 229 227 222 225 225 223 222 209 193 185 172 174 176 173 182 194 230 244 280 297 305 310 314 315 317 315 308 296 284 276 271 268 253 241 240
99 66 50 45 63 51 323 151 282 272 255 268 256 245 244 243 245 248 251 247 244 225 206 193 186 202 202 197 198 206 231 255 284 301 307 309 309 310 314 316 309 300 291 284 277 269 260 251 247
65 71 24 4 12 269 282 209 254 276 279 263 263 265 263 263 266 272 270 258 251 239 228 214 206 220 218 215 220 222 230 238 254 275 285 297 305 305 309 314 307 300 292 287 281 273 264 254 249
101 130 151 204 230 277 319 237 255 317 330 330 323 328 342 337 328 312 299 284 267 254 244 233 227 231 223 221 228 227 227 230 245 257 267 278 284 289 296 304 305 302 297 293 286 278 270 259 250
142 146 160 138 175 268 286 293 313 355 2 2 3 11 5 355 352 349 346 336 311 286 263 246 240 243 235 228 229 230 228 230 241 251 259 270 277 289 299 305 306 306 304 300 293 282 276 267 255
101 139 98 113 156 255 288 299 310 336 342 352 6 8 2 5 7 4 358 351 341 326 317 300 260 249 246 239 234 233 230 231 237 242 254 264 277 290 304 310 310 311 312 310 301 292 284 274 263
31 78 94 109 153 168 253 275 359 333 334 346 359 4 2 5 2 359 357 355 354 354 353 342 321 295 278 259 245 238 237 231 232 239 248 255 270 289 302 308 312 315 319 320 315 308 302 289 280
250 146 140 133 252 188 201 255 13 26 10 11 8 7 10 11 7 5 3 3 4 0 353 344 333 316 296 278 257 244 240 233 233 241 245 247 263 284 298 309 315 321 326 330 333 331 329 322 315